Powrót do katalogu

ICEYE-X53

AktywnyNaukaSSO
NORAD 64584·PAYLOAD·🇫🇮 Finland

Wystrzelony Jun 23, 2025 z Vandenberg Space Force Base

Loading…

Następne Przeloty (najbliższe 24 godziny)

TLE

ŚwieżeSource: Space-Track

Epoka: Sep 14, 2026, 13:26 UTC

1 64584U 25135BJ  26257.55988492  .00004335  00000-0  34515-3 0  9991
2 64584  97.7316  13.9096 0001553 133.8874 226.2478 15.00901258 67485

Śledź ICEYE-X53 w czasie rzeczywistym z AllMySat

Download on the App Store